EZY11BJ LJLJ-LKPR

Flight info

Callsign EZY11BJ
Flight time 0h 50m
Altitude 35000
Route GIMIX DCT TIVAP DCT BUDEX DCT APRAQ
Aircraft B736/M-SDE2E3FGHIRWXY/LB1

Departure

Time 2026-05-04 09:40
Airport Ljubljana Jože Pučnik Airport (LJLJ)

Arrival

Time 2026-05-04 10:31
Airport Václav Havel Airport Prague (LKPR)
Time Latitude Longitude Altitude Speed Heading
2026-05-04 09:37 46.23042 14.45242 1257 ft 12 kts 303°
2026-05-04 09:37 46.23027 14.45180 1255 ft 12 kts 219°
2026-05-04 09:38 46.22972 14.45056 1248 ft 19 kts 292°
2026-05-04 09:38 46.23062 14.44872 1254 ft 26 kts 306°
2026-05-04 09:38 46.23139 14.44721 1251 ft 28 kts 307°
2026-05-04 09:38 46.23249 14.44503 1246 ft 26 kts 305°
2026-05-04 09:39 46.23342 14.44303 1254 ft 19 kts 310°
2026-05-04 09:39 46.23391 14.44138 1248 ft 19 kts 251°
2026-05-04 09:39 46.23298 14.44083 1252 ft 16 kts 175°
2026-05-04 09:39 46.23181 14.44185 1254 ft 34 kts 134°
2026-05-04 09:40 46.22889 14.44750 1245 ft 104 kts 126°
2026-05-04 09:40 46.22340 14.45816 1262 ft 157 kts 128°
2026-05-04 09:40 46.21687 14.47118 1838 ft 158 kts 126°
2026-05-04 09:40 46.21036 14.48437 2484 ft 165 kts 124°
2026-05-04 09:41 46.20340 14.49815 3114 ft 174 kts 130°
2026-05-04 09:42 46.13986 14.62151 6450 ft 266 kts 123°
2026-05-04 09:43 46.13442 14.64700 7114 ft 268 kts 99°
2026-05-04 09:43 46.12819 14.67194 7690 ft 266 kts 131°
2026-05-04 09:43 46.11415 14.68865 8363 ft 261 kts 148°
2026-05-04 09:43 46.10009 14.70541 9117 ft 264 kts 138°
2026-05-04 09:44 46.08772 14.72492 9820 ft 265 kts 133°
2026-05-04 09:44 46.07605 14.74571 10175 ft 270 kts 130°
2026-05-04 09:44 46.06415 14.76671 10857 ft 269 kts 139°
2026-05-04 09:46 46.00068 14.65117 14392 ft 366 kts 302°
2026-05-04 09:46 46.01648 14.62221 15234 ft 370 kts 309°
2026-05-04 09:46 46.03389 14.59447 16042 ft 376 kts 310°
2026-05-04 09:47 46.05167 14.56644 16850 ft 380 kts 310°
2026-05-04 09:47 46.06930 14.53780 17644 ft 385 kts 309°
2026-05-04 09:49 46.19327 14.32552 22447 ft 416 kts 312°
2026-05-04 09:49 46.21340 14.29461 22765 ft 427 kts 311°
2026-05-04 09:49 46.23310 14.26233 23419 ft 428 kts 309°
2026-05-04 09:51 46.34422 14.05583 26629 ft 439 kts 306°
2026-05-04 09:51 46.36276 14.02050 27117 ft 441 kts 306°
2026-05-04 09:51 46.38139 13.98498 27497 ft 445 kts 306°
2026-05-04 09:51 46.40018 13.94917 27921 ft 447 kts 306°
2026-05-04 09:52 46.41902 13.91324 28409 ft 449 kts 306°
2026-05-04 09:52 46.43798 13.87705 28837 ft 451 kts 306°
2026-05-04 09:52 46.45695 13.84078 29440 ft 450 kts 306°
2026-05-04 09:52 46.47579 13.80469 30127 ft 446 kts 306°
2026-05-04 09:53 46.49611 13.77100 30671 ft 446 kts 318°
2026-05-04 09:53 46.52191 13.74699 31106 ft 450 kts 334°
2026-05-04 09:53 46.55183 13.73345 31563 ft 453 kts 347°
2026-05-04 09:53 46.58335 13.73082 32020 ft 457 kts
2026-05-04 09:54 46.61478 13.73837 32545 ft 457 kts
2026-05-04 09:54 46.64587 13.74774 33000 ft 456 kts
2026-05-04 09:54 46.67702 13.75763 33385 ft 457 kts 10°
2026-05-04 09:54 46.70812 13.76755 33828 ft 457 kts
2026-05-04 09:55 46.73916 13.77732 34239 ft 456 kts
2026-05-04 09:55 46.77017 13.78688 34628 ft 455 kts
2026-05-04 09:55 46.80072 13.79617 34976 ft 454 kts
2026-05-04 09:55 46.83217 13.80562 35082 ft 457 kts
2026-05-04 09:56 46.86327 13.81493 35091 ft 456 kts
2026-05-04 09:56 46.92490 13.83337 35088 ft 454 kts
2026-05-04 09:57 46.98671 13.85189 35093 ft 453 kts
2026-05-04 09:57 47.04845 13.87045 35078 ft 453 kts
2026-05-04 09:58 47.11021 13.88908 35091 ft 453 kts
2026-05-04 09:58 47.17193 13.90775 35087 ft 453 kts
2026-05-04 10:00 47.41895 13.98286 35056 ft 455 kts
2026-05-04 10:04 47.85167 14.11624 35041 ft 456 kts
2026-05-04 10:04 47.91399 14.13563 35049 ft 457 kts
2026-05-04 10:05 47.97621 14.15503 35035 ft 457 kts
2026-05-04 10:05 48.03851 14.17453 35023 ft 457 kts
2026-05-04 10:06 48.10032 14.19391 35028 ft 456 kts
2026-05-04 10:06 48.16253 14.21347 35017 ft 456 kts
2026-05-04 10:08 48.37958 14.28208 35028 ft 454 kts
2026-05-04 10:08 48.44102 14.30161 35041 ft 454 kts
2026-05-04 10:09 48.50308 14.32140 35028 ft 455 kts
2026-05-04 10:09 48.56521 14.34126 35020 ft 456 kts
2026-05-04 10:10 48.62739 14.36121 35027 ft 456 kts
2026-05-04 10:10 48.68911 14.38102 35030 ft 457 kts
2026-05-04 10:11 48.75184 14.38856 35018 ft 450 kts 352°
2026-05-04 10:11 48.81336 14.37306 35016 ft 447 kts 346°
2026-05-04 10:12 48.87464 14.35556 35018 ft 448 kts 347°
2026-05-04 10:12 48.93608 14.33916 35024 ft 448 kts 347°
2026-05-04 10:13 48.99747 14.32192 35000 ft 449 kts 346°
2026-05-04 10:13 49.02845 14.31243 34369 ft 456 kts 345°
2026-05-04 10:13 49.05902 14.30296 33580 ft 454 kts 345°
2026-05-04 10:14 49.09000 14.29338 32698 ft 453 kts 346°
2026-05-04 10:14 49.12076 14.28395 32052 ft 447 kts 346°
2026-05-04 10:16 49.32641 14.22139 27828 ft 413 kts 346°
2026-05-04 10:16 49.35446 14.21282 27251 ft 409 kts 346°
2026-05-04 10:16 49.38223 14.20432 26690 ft 405 kts 346°
2026-05-04 10:16 49.40983 14.19587 26142 ft 403 kts 346°
2026-05-04 10:17 49.43720 14.18748 25590 ft 400 kts 346°
2026-05-04 10:17 49.46443 14.17912 25064 ft 397 kts 346°
2026-05-04 10:19 49.65090 14.12410 21208 ft 385 kts 359°
2026-05-04 10:19 49.67740 14.12986 20764 ft 383 kts
2026-05-04 10:19 49.70342 14.13849 20217 ft 382 kts 11°
2026-05-04 10:19 49.72933 14.14740 19716 ft 380 kts 11°
2026-05-04 10:20 49.75513 14.15608 19224 ft 378 kts 10°
2026-05-04 10:20 49.78082 14.16460 18721 ft 378 kts 13°
2026-05-04 10:20 49.80486 14.18096 18197 ft 380 kts 33°
2026-05-04 10:20 49.82370 14.20892 17670 ft 371 kts 56°
2026-05-04 10:21 49.83488 14.24348 17414 ft 351 kts 71°
2026-05-04 10:21 49.84240 14.27805 16760 ft 352 kts 74°
2026-05-04 10:21 49.84923 14.31468 16150 ft 354 kts 82°
2026-05-04 10:21 49.84800 14.35187 15800 ft 342 kts 109°
2026-05-04 10:22 49.83227 14.41773 15219 ft 315 kts 114°
2026-05-04 10:22 49.82427 14.44930 14604 ft 315 kts 115°
2026-05-04 10:22 49.81626 14.48078 14025 ft 313 kts 115°
2026-05-04 10:23 49.80832 14.51203 13429 ft 310 kts 115°
2026-05-04 10:23 49.80043 14.54308 12777 ft 308 kts 115°
2026-05-04 10:25 49.89510 14.62681 8531 ft 287 kts 345°
2026-05-04 10:25 49.91430 14.61989 7824 ft 287 kts 342°
2026-05-04 10:25 49.93123 14.60441 7087 ft 282 kts 315°
2026-05-04 10:25 49.94443 14.58258 6373 ft 274 kts 308°
2026-05-04 10:26 49.95603 14.55956 5626 ft 269 kts 305°
2026-05-04 10:26 49.96327 14.54439 5402 ft 257 kts 304°
2026-05-04 10:26 49.97354 14.52318 5157 ft 235 kts 307°
2026-05-04 10:26 49.98365 14.50340 4687 ft 228 kts 307°
2026-05-04 10:27 49.99296 14.48450 4367 ft 214 kts 306°
2026-05-04 10:27 50.00157 14.46666 4100 ft 200 kts 306°
2026-05-04 10:27 50.00974 14.44963 3840 ft 194 kts 306°
2026-05-04 10:27 50.01774 14.43289 3587 ft 190 kts 306°
2026-05-04 10:28 50.02530 14.41717 3371 ft 175 kts 306°
2026-05-04 10:28 50.03244 14.40237 3158 ft 168 kts 306°
2026-05-04 10:28 50.03950 14.38760 2930 ft 171 kts 306°
2026-05-04 10:28 50.04666 14.37273 2684 ft 170 kts 307°
2026-05-04 10:29 50.05377 14.35793 2476 ft 173 kts 307°
2026-05-04 10:29 50.06083 14.34327 2259 ft 163 kts 307°
2026-05-04 10:29 50.06730 14.32979 2035 ft 149 kts 307°
2026-05-04 10:29 50.07321 14.31729 1836 ft 138 kts 306°
2026-05-04 10:30 50.07872 14.30568 1687 ft 136 kts 308°
2026-05-04 10:30 50.08455 14.29360 1486 ft 141 kts 307°
2026-05-04 10:30 50.09039 14.28154 1284 ft 135 kts 308°
2026-05-04 10:30 50.09573 14.27072 1206 ft 112 kts 307°
2026-05-04 10:31 50.09969 14.26247 1195 ft 78 kts 308°
2026-05-04 10:31 50.10231 14.25746 1187 ft 34 kts 322°
2026-05-04 10:32 50.10517 14.25988 1172 ft 20 kts 80°
2026-05-04 10:33 50.10536 14.26192 1173 ft 17 kts 95°
2026-05-04 10:33 50.10488 14.26351 1170 ft 16 kts 124°
2026-05-04 10:33 50.10425 14.26494 1170 ft 16 kts 124°
2026-05-04 10:33 50.10386 14.26601 1171 ft 4 kts 79°
2026-05-04 10:34 50.10403 14.26627 1169 ft 4 kts 34°
2026-05-04 10:34 50.10413 14.26637 1171 ft 0 kts 32°